Location: Namasale
(1.5000°N, 32.6167°E)
Time: 22:41:55
(UTC+00:00)

Vanguard 3 - Pass Details

Date: 07 December 2021
Orbit: 508 x 3260 km, 33.3° (Epoch: 27 January)

Event Time Altitude Azimuth Distance (km) Brightness Sun altitude
Exits shadow 00:53:09 28° 355° (N) 4,828 10.7 -38.8°
Drops below altitude 10° 01:05:02 10° 32° (NNE) 5,971 11.6 -36.2°
Sets 01:10:30 0° 43° (NE) 6,733 12.0 -35.0°
